Location: G�ndlingen
(48.0142°N, 7.6396°E)
Time: 08:42:29
(UTC+00:00)

SL-16 R/B - Pass Details

Date: 05 July 2020
Orbit: 985 x 1006 km, 99.5° (Epoch: 04 August)

Event Time Altitude Azimuth Distance (km) Brightness Sun altitude
Exits shadow 23:31:34 - 118° (ESE) 3,401 5.1 -19.3°
Reaches altitude 10° 23:33:33 10° 108° (ESE) 2,769 4.7 -19.3°
Maximum altitude 23:38:26 25° 56° (NE) 1,901 4.4 -19.3°
Drops below altitude 10° 23:43:21 10° 4° (N) 2,790 6.1 -19.3°
Sets 23:46:16 0° 352° (N) 3,746 7.1 -19.3°
